Zurück zum Katalog

FENGYUN 1C DEB

AktivSSO
NORAD 30878·DEBRIS·🇨🇳 China

Gestartet May 10, 1999 von Taiyuan Satellite Launch Center

Loading…

Nächste Überflüge (nächste 24 Stunden)

TLE

AktuellSource: Space-Track

Epoche: Sep 12, 2026, 22:20 UTC

1 30878U 99025AXQ 26255.93084205  .00000527  00000-0  30736-3 0  9998
2 30878  98.7289 255.0887 0039199 233.4099 189.3108 14.12373463  2261

Verfolge FENGYUN 1C DEB in Echtzeit mit AllMySat

Download on the App Store